Weather History for PASI - March, 2013

Change the Weather History Date:

Sunday, March 17, 2013

  Actual Average Record
Temperature  
Mean Temperature 33 °F -  
Max Temperature 37 °F 43 °F 55 °F (1990)
Min Temperature 30 °F 33 °F 10 °F (2006)
Degree Days  
Heating Degree Days 32    
Moisture  
Dew Point 33 °F    
Average Humidity 93    
Maximum Humidity 100    
Minimum Humidity 76    
Precipitation  
Precipitation 0.29 in - - ()
Sea Level Pressure  
Sea Level Pressure 29.97 in    
Wind  
Wind Speed 4 mph (SE)    
Max Wind Speed 10 mph    
Max Gust Speed -    
Visibility 7 miles    
Events Rain , Snow    
Averages and records for this station are not official NWS values.
T = Trace of Precipitation, MM = Missing Value Source: NWS Daily Summary

Daily Weather History Graph

Daily Weather History Graph

Search for Another Location

Airport or City:

Trip Planner

Search our weather history database for the weather conditions in past years. The results will help you decide how hot, cold, wet, or windy it might be!

Date:

Astronomy

Mar. 17, 2013 Rise Set
Actual Time 7:10 AM AKDT 7:10 PM AKDT
Civil Twilight 6:32 AM AKDT 7:48 PM AKDT
Nautical Twilight 5:47 AM AKDT 8:33 PM AKDT
Astronomical Twilight 4:59 AM AKDT 9:21 PM AKDT
Moon 9:21 AM AKDT (3/17) 1:29 AM AKDT (3/17)
Length of Visible Light 13h 15m
Length of Day
11h 59m
Waxing Crescent, 33% of the Moon is Illuminated
Mar 17
Waxing Crescent
Mar 19
First Quarter
Mar 27
Full
Apr 2
Last Quarter
Apr 10
New

Hourly Weather History & Observations

Time (AKDT) Temp. Windchill Dew Point Humidity Pressure Visibility Wind Dir Wind Speed Gust Speed Precip Events Conditions
12:02 AM 33.8 °F - 30.2 °F 87% 29.99 in 10.0 mi Calm Calm - N/A   Overcast
12:53 AM 33.1 °F 27.7 °F 30.9 °F 92% 29.99 in 10.0 mi NNW 5.8 mph - N/A   Overcast
1:53 AM 32.0 °F 26.4 °F 30.0 °F 92% 29.99 in 10.0 mi East 5.8 mph - N/A   Mostly Cloudy
2:53 AM 33.1 °F 28.7 °F 30.9 °F 92% 29.99 in 10.0 mi East 4.6 mph - N/A   Overcast
3:53 AM 30.9 °F - 28.9 °F 92% 29.99 in 10.0 mi Calm Calm - N/A   Overcast
4:53 AM 32.0 °F 28.7 °F 30.0 °F 92% 29.99 in 10.0 mi East 3.5 mph - N/A   Overcast
5:53 AM 32.0 °F 28.7 °F 30.0 °F 92% 29.98 in 10.0 mi East 3.5 mph - N/A   Overcast
6:53 AM 32.0 °F - 30.0 °F 92% 29.98 in 10.0 mi Calm Calm - N/A   Overcast
7:44 AM 33.8 °F - 30.2 °F 87% 29.98 in 10.0 mi Calm Calm - N/A   Overcast
7:53 AM 33.1 °F - 30.0 °F 89% 29.99 in 10.0 mi Calm Calm - N/A   Overcast
8:53 AM 33.1 °F 26.1 °F 30.0 °F 89% 29.99 in 8.0 mi SE 8.1 mph - 0.00 in Snow Light Snow
9:53 AM 34.0 °F 31.0 °F 28.9 °F 82% 29.99 in 10.0 mi SE 3.5 mph - 0.00 in   Overcast
10:53 AM 36.0 °F 33.3 °F 28.9 °F 76% 29.99 in 10.0 mi South 3.5 mph - 0.00 in Snow Light Snow
11:42 AM 35.6 °F 30.7 °F 33.8 °F 93% 30.00 in 8.0 mi SSW 5.8 mph - 0.00 in Snow Light Snow
11:53 AM 35.1 °F 32.2 °F 33.1 °F 92% 30.00 in 3.0 mi South 3.5 mph - 0.00 in Snow Light Snow
12:22 PM 35.6 °F 29.2 °F 33.8 °F 93% 30.00 in 9.0 mi South 8.1 mph - 0.00 in   Overcast
12:42 PM 35.6 °F 29.2 °F 33.8 °F 93% 30.00 in 5.0 mi South 8.1 mph - 0.00 in Snow Light Snow
12:53 PM 36.0 °F 30.3 °F 35.1 °F 97% 30.00 in 8.0 mi SSW 6.9 mph - 0.00 in Snow Light Snow
1:35 PM 35.6 °F 30.7 °F 33.8 °F 93% 30.00 in 10.0 mi SE 5.8 mph - 0.00 in   Overcast
1:53 PM 36.0 °F 32.1 °F 33.1 °F 89% 30.00 in 10.0 mi SE 4.6 mph - 0.00 in   Overcast
2:27 PM 35.6 °F 28.0 °F 33.8 °F 93% 30.00 in 10.0 mi South 10.4 mph - N/A   Overcast
2:35 PM 35.6 °F 28.0 °F 33.8 °F 93% 30.00 in 1.0 mi South 10.4 mph - 0.01 in Snow Light Snow
2:50 PM 35.6 °F 29.9 °F 33.8 °F 93% 30.00 in 3.0 mi South 6.9 mph - 0.02 in Snow Light Snow
2:53 PM 35.1 °F 28.6 °F 33.1 °F 92% 30.00 in 3.0 mi SSE 8.1 mph - 0.02 in Snow Light Snow
3:29 PM 35.6 °F 28.0 °F 33.8 °F 93% 29.99 in 10.0 mi South 10.4 mph - 0.00 in   Overcast
3:53 PM 35.1 °F 30.1 °F 33.1 °F 92% 29.99 in 7.0 mi West 5.8 mph - 0.02 in Snow Light Snow
4:21 PM 35.6 °F - 33.8 °F 93% 29.99 in 10.0 mi Calm Calm - 0.00 in   Overcast
4:53 PM 36.0 °F - 34.0 °F 93% 29.99 in 10.0 mi Calm Calm - 0.00 in   Mostly Cloudy
5:53 PM 36.0 °F 30.3 °F 34.0 °F 93% 29.96 in 10.0 mi ESE 6.9 mph - N/A   Overcast
6:18 PM 35.6 °F 29.9 °F 33.8 °F 93% 29.94 in 6.0 mi East 6.9 mph - 0.00 in Snow Light Snow
6:53 PM 34.0 °F 28.8 °F 33.1 °F 96% 29.95 in 3.0 mi NW 5.8 mph - 0.05 in Snow Light Snow
6:58 PM 33.8 °F 30.8 °F 33.8 °F 100% 29.95 in 1.8 mi NW 3.5 mph - 0.01 in Snow Light Snow
7:00 PM 33.8 °F - 33.8 °F 100% 29.95 in 1.2 mi Calm Calm - 0.02 in Snow Light Snow
7:08 PM 33.8 °F - 33.8 °F 100% 29.95 in 1.5 mi Calm Calm - 0.03 in Snow Light Snow
7:26 PM 33.8 °F - 33.8 °F 100% 29.95 in 1.0 mi Calm Calm - 0.07 in Snow Light Snow
7:33 PM 33.8 °F 28.6 °F 33.8 °F 100% 29.96 in 0.8 mi Variable 5.8 mph - 0.10 in Snow Light Snow
7:49 PM 33.8 °F 30.8 °F 33.8 °F 100% 29.95 in 1.5 mi East 3.5 mph - 0.12 in Snow Light Snow
7:53 PM 33.1 °F - 33.1 °F 100% 29.95 in 2.0 mi Calm Calm - 0.13 in Snow Light Snow
8:02 PM 33.8 °F - 33.8 °F 100% 29.95 in 1.2 mi Calm Calm - 0.01 in Snow Light Snow
8:16 PM 33.8 °F 27.7 °F 32.0 °F 93% 29.95 in 3.0 mi East 6.9 mph - 0.03 in Snow Light Snow
8:53 PM 33.1 °F 27.7 °F 33.1 °F 100% 29.94 in 6.0 mi ENE 5.8 mph - 0.03 in Snow Light Snow
9:26 PM 33.8 °F 30.8 °F 33.8 °F 100% 29.93 in 4.0 mi ESE 3.5 mph - 0.03 in Rain Light Rain
9:33 PM 33.8 °F 29.6 °F 33.8 °F 100% 29.93 in 10.0 mi ENE 4.6 mph - 0.03 in   Overcast
9:53 PM 34.0 °F 28.0 °F 33.1 °F 96% 29.94 in 10.0 mi East 6.9 mph - 0.03 in   Overcast
10:42 PM 35.6 °F 32.8 °F 33.8 °F 93% 29.93 in 10.0 mi ESE 3.5 mph - 0.01 in Rain Light Rain
10:53 PM 36.0 °F 30.3 °F 33.1 °F 89% 29.93 in 10.0 mi West 6.9 mph - 0.01 in Rain Light Rain
11:12 PM 35.6 °F 30.7 °F 33.8 °F 93% 29.93 in 10.0 mi WSW 5.8 mph - 0.00 in Rain Light Rain
11:35 PM 35.6 °F 31.7 °F 33.8 °F 93% 29.93 in 10.0 mi WSW 4.6 mph - 0.00 in   Overcast
11:53 PM 34.0 °F 29.8 °F 32.0 °F 92% 29.93 in 10.0 mi ENE 4.6 mph - 0.00 in Rain Light Rain
11:59 PM 33.8 °F 28.6 °F 32.0 °F 93% 29.92 in 10.0 mi ENE 5.8 mph - N/A   Overcast